• en France
  • Liste des pays
  • À 7 jours
  • Température de l'eau
  • Carte satellitaire
  • Carte météo
  • Widgets météo
  • user-avatar
    Se connecter

    Météo par heure à Choroda

    Ce jour, 22 Octobre, Lundi

    Heure Température Précipitation Vent Pression Humidité
    00:00 +10°C° 0 mm 1 m/s 631 mmHg 69%
    01:00 +9°C° 0.1 mm 2 m/s 631 mmHg 67%
    02:00 +9°C° 0.1 mm 2 m/s 631 mmHg 65%
    03:00 +10°C° 0 mm 1 m/s 631 mmHg 65%
    04:00 +10°C° 0.2 mm 1 m/s 631 mmHg 64%
    05:00 +10°C° 0.2 mm 1 m/s 631 mmHg 63%
    06:00 +11°C° 0.2 mm 1 m/s 631 mmHg 62%
    07:00 +11°C° 0.4 mm 1 m/s 631 mmHg 63%
    08:00 +12°C° 0.4 mm 1 m/s 631 mmHg 64%
    09:00 +12°C° 0.4 mm 1 m/s 632 mmHg 65%
    10:00 +13°C° 0.5 mm 2 m/s 632 mmHg 65%
    11:00 +13°C° 0.5 mm 2 m/s 632 mmHg 66%
    12:00 +13°C° 0.5 mm 2 m/s 632 mmHg 67%
    13:00 +13°C° 0.2 mm 2 m/s 632 mmHg 69%
    14:00 +13°C° 0.2 mm 1 m/s 632 mmHg 71%
    15:00 +13°C° 0.2 mm 1 m/s 632 mmHg 73%
    16:00 +12°C° 0 mm 1 m/s 631 mmHg 79%
    17:00 +11°C° 0 mm 1 m/s 631 mmHg 84%
    18:00 +10°C° 0 mm 1 m/s 631 mmHg 90%
    19:00 +10°C° 0 mm 1 m/s 631 mmHg 90%
    20:00 +9°C° 0 mm 1 m/s 631 mmHg 89%
    21:00 +9°C° 0 mm 1 m/s 631 mmHg 88%
    22:00 +9°C° 0 mm 1 m/s 631 mmHg 87%
    23:00 +9°C° 0 mm 1 m/s 631 mmHg 85%

    Demain, 23 Octobre, Mardi

    Heure Température Précipitation Vent Pression Humidité
    00:00 +8°C° 0 mm 1 m/s 631 mmHg 84%
    01:00 +8°C° 0 mm 1 m/s 631 mmHg 82%
    02:00 +8°C° 0 mm 1 m/s 631 mmHg 80%
    03:00 +8°C° 0 mm 1 m/s 631 mmHg 78%
    04:00 +8°C° 0 mm 1 m/s 631 mmHg 76%
    05:00 +8°C° 0 mm 1 m/s 630 mmHg 73%
    06:00 +7°C° 0 mm 1 m/s 630 mmHg 71%
    07:00 +9°C° 0 mm 1 m/s 631 mmHg 67%
    08:00 +11°C° 0 mm 1 m/s 632 mmHg 63%
    09:00 +12°C° 0 mm 1 m/s 632 mmHg 59%
    10:00 +13°C° 0 mm 1 m/s 632 mmHg 57%
    11:00 +14°C° 0 mm 2 m/s 632 mmHg 56%
    12:00 +15°C° 0 mm 2 m/s 632 mmHg 54%
    13:00 +14°C° 0 mm 2 m/s 632 mmHg 56%
    14:00 +14°C° 0 mm 2 m/s 632 mmHg 58%
    15:00 +14°C° 0 mm 2 m/s 631 mmHg 60%
    16:00 +12°C° 0 mm 1 m/s 631 mmHg 67%
    17:00 +11°C° 0 mm 1 m/s 630 mmHg 73%
    18:00 +9°C° 0 mm 1 m/s 630 mmHg 79%
    19:00 +9°C° 0 mm 1 m/s 630 mmHg 75%
    20:00 +9°C° 0 mm 1 m/s 630 mmHg 72%
    21:00 +9°C° 0 mm 1 m/s 630 mmHg 68%
    22:00 +8°C° 0 mm 2 m/s 629 mmHg 68%
    23:00 +7°C° 0 mm 2 m/s 629 mmHg 68%

    Après-demain, 24 Octobre, Mercredi

    Heure Température Précipitation Vent Pression Humidité
    00:00 +7°C° 0 mm 2 m/s 629 mmHg 68%
    01:00 +7°C° 0 mm 2 m/s 629 mmHg 70%
    02:00 +7°C° 0 mm 2 m/s 628 mmHg 72%
    03:00 +7°C° 0 mm 2 m/s 628 mmHg 75%
    04:00 +7°C° 0 mm 2 m/s 628 mmHg 76%
    05:00 +7°C° 0 mm 2 m/s 628 mmHg 77%
    06:00 +7°C° 0 mm 2 m/s 627 mmHg 78%
    07:00 +9°C° 0 mm 2 m/s 628 mmHg 73%
    08:00 +10°C° 0 mm 3 m/s 628 mmHg 68%
    09:00 +12°C° 0 mm 3 m/s 629 mmHg 63%
    10:00 +13°C° 0 mm 3 m/s 628 mmHg 59%
    11:00 +14°C° 0 mm 3 m/s 628 mmHg 56%
    12:00 +14°C° 0 mm 3 m/s 628 mmHg 52%
    13:00 +14°C° 0 mm 3 m/s 627 mmHg 53%
    14:00 +14°C° 0 mm 3 m/s 627 mmHg 53%
    15:00 +14°C° 0 mm 3 m/s 626 mmHg 54%
    16:00 +13°C° 0 mm 3 m/s 625 mmHg 59%
    17:00 +11°C° 0 mm 3 m/s 625 mmHg 64%
    18:00 +10°C° 0 mm 3 m/s 624 mmHg 70%
    19:00 +9°C° 0 mm 3 m/s 624 mmHg 70%
    20:00 +9°C° 0 mm 3 m/s 624 mmHg 69%
    21:00 +8°C° 0 mm 4 m/s 623 mmHg 69%
    22:00 +8°C° 0.1 mm 4 m/s 623 mmHg 70%
    23:00 +8°C° 0.1 mm 4 m/s 622 mmHg 71%

    25 Octobre, Jeudi

    Heure Température Précipitation Vent Pression Humidité
    00:00 +8°C° 0.1 mm 4 m/s 622 mmHg 71%
    01:00 +8°C° 0 mm 4 m/s 621 mmHg 72%
    02:00 +8°C° 0 mm 4 m/s 621 mmHg 73%
    03:00 +8°C° 0 mm 4 m/s 620 mmHg 74%
    04:00 +8°C° 0 mm 4 m/s 620 mmHg 75%
    05:00 +7°C° 0 mm 4 m/s 620 mmHg 75%
    06:00 +7°C° 0 mm 4 m/s 620 mmHg 75%
    07:00 +9°C° 0 mm 5 m/s 620 mmHg 69%
    08:00 +12°C° 0 mm 5 m/s 621 mmHg 63%
    09:00 +13°C° 0 mm 5 m/s 621 mmHg 57%
    10:00 +15°C° 0 mm 6 m/s 621 mmHg 53%
    11:00 +16°C° 0 mm 7 m/s 621 mmHg 48%
    12:00 +17°C° 0 mm 8 m/s 621 mmHg 44%
    13:00 +17°C° 0 mm 7 m/s 621 mmHg 44%
    14:00 +17°C° 0 mm 6 m/s 621 mmHg 45%
    15:00 +17°C° 0 mm 6 m/s 620 mmHg 45%
    16:00 +15°C° 0 mm 5 m/s 620 mmHg 52%
    17:00 +13°C° 0 mm 4 m/s 620 mmHg 59%
    18:00 +11°C° 0 mm 3 m/s 619 mmHg 66%
    19:00 +10°C° 0.1 mm 4 m/s 620 mmHg 70%
    20:00 +10°C° 0.1 mm 4 m/s 620 mmHg 74%
    21:00 +10°C° 0.1 mm 4 m/s 621 mmHg 78%
    22:00 +8°C° 0.1 mm 4 m/s 621 mmHg 80%
    23:00 +7°C° 0.1 mm 4 m/s 621 mmHg 82%

    26 Octobre, Vendredi

    Heure Température Précipitation Vent Pression Humidité
    00:00 +7°C° 0.1 mm 3 m/s 622 mmHg 85%
    01:00 +7°C° 0.1 mm 3 m/s 622 mmHg 85%
    02:00 +5°C° 0.1 mm 3 m/s 622 mmHg 86%
    03:00 +5°C° 0.1 mm 3 m/s 622 mmHg 86%
    04:00 +5°C° 0.8 mm 3 m/s 622 mmHg 88%
    05:00 +5°C° 0.8 mm 2 m/s 623 mmHg 90%
    06:00 +5°C° 0.8 mm 2 m/s 623 mmHg 91%
    07:00 +4°C° 2.7 mm 2 m/s 623 mmHg 92%
    08:00 +4°C° 2.7 mm 2 m/s 624 mmHg 94%
    09:00 +3°C° 2.7 mm 2 m/s 624 mmHg 95%
    10:00 +3°C° 1.5 mm 2 m/s 624 mmHg 94%
    11:00 +3°C° 1.5 mm 2 m/s 624 mmHg 94%
    12:00 +3°C° 1.5 mm 2 m/s 624 mmHg 94%
    13:00 +3°C° 0.6 mm 2 m/s 624 mmHg 93%
    14:00 +3°C° 0.6 mm 2 m/s 624 mmHg 93%
    15:00 +3°C° 0.6 mm 2 m/s 624 mmHg 92%
    16:00 +2°C° 0.2 mm 2 m/s 624 mmHg 92%
    17:00 +2°C° 0.2 mm 2 m/s 625 mmHg 91%
    18:00 +1°C° 0.2 mm 2 m/s 625 mmHg 91%
    19:00 -1°C° 0 mm 2 m/s 625 mmHg 86%
    20:00 -2°C° 0 mm 3 m/s 625 mmHg 82%
    21:00 -4°C° 0 mm 3 m/s 624 mmHg 78%
    22:00 -4°C° 0 mm 3 m/s 625 mmHg 75%
    23:00 -5°C° 0 mm 3 m/s 625 mmHg 72%

    27 Octobre, Samedi

    Heure Température Précipitation Vent Pression Humidité
    00:00 -5°C° 0 mm 3 m/s 626 mmHg 69%
    01:00 -4°C° 0 mm 3 m/s 627 mmHg 72%
    02:00 -4°C° 0 mm 3 m/s 628 mmHg 75%
    03:00 -2°C° 0 mm 3 m/s 628 mmHg 78%
    04:00 -2°C° 0 mm 2 m/s 629 mmHg 80%
    05:00 -2°C° 0 mm 2 m/s 630 mmHg 81%
    06:00 -2°C° 0 mm 2 m/s 631 mmHg 83%
    07:00 -1°C° 0 mm 2 m/s 632 mmHg 82%
    08:00 +1°C° 0 mm 2 m/s 633 mmHg 82%
    09:00 +2°C° 0 mm 2 m/s 634 mmHg 81%
    10:00 +3°C° 0 mm 2 m/s 634 mmHg 79%
    11:00 +4°C° 0 mm 2 m/s 634 mmHg 77%
    12:00 +5°C° 0 mm 2 m/s 635 mmHg 76%
    13:00 +5°C° 0 mm 2 m/s 635 mmHg 76%
    14:00 +6°C° 0 mm 1 m/s 635 mmHg 76%
    15:00 +6°C° 0 mm 1 m/s 635 mmHg 76%
    16:00 +4°C° 0 mm 2 m/s 635 mmHg 76%
    17:00 +2°C° 0 mm 2 m/s 635 mmHg 76%
    18:00 +1°C° 0 mm 2 m/s 635 mmHg 76%
    19:00 -1°C° 0 mm 2 m/s 636 mmHg 73%
    20:00 -1°C° 0 mm 2 m/s 636 mmHg 69%
    21:00 -1°C° 0 mm 2 m/s 636 mmHg 66%
    22:00 -1°C° 0 mm 2 m/s 636 mmHg 66%
    23:00 -1°C° 0 mm 2 m/s 636 mmHg 65%

    28 Octobre, Dimanche

    Heure Température Précipitation Vent Pression Humidité
    00:00 -1°C° 0 mm 2 m/s 636 mmHg 65%
    01:00 -1°C° 0 mm 3 m/s 636 mmHg 66%
    02:00 -1°C° 0 mm 3 m/s 636 mmHg 66%
    03:00 -1°C° 0 mm 3 m/s 636 mmHg 67%
    04:00 -1°C° 0 mm 3 m/s 636 mmHg 66%
    05:00 0°C° 0 mm 3 m/s 636 mmHg 65%
    06:00 +1°C° 0 mm 2 m/s 636 mmHg 64%
    07:00 +3°C° 0 mm 2 m/s 637 mmHg 64%
    08:00 +5°C° 0 mm 2 m/s 638 mmHg 64%
    09:00 +7°C° 0 mm 2 m/s 639 mmHg 64%
    10:00 +8°C° 0 mm 2 m/s 639 mmHg 65%
    11:00 +9°C° 0 mm 2 m/s 639 mmHg 66%
    12:00 +11°C° 0 mm 1 m/s 639 mmHg 67%
    13:00 +11°C° 0 mm 1 m/s 639 mmHg 67%
    14:00 +11°C° 0 mm 1 m/s 639 mmHg 67%
    15:00 +11°C° 0 mm 1 m/s 638 mmHg 66%
    16:00 +9°C° 0 mm 1 m/s 638 mmHg 65%
    17:00 +7°C° 0 mm 2 m/s 637 mmHg 63%
    18:00 +5°C° 0 mm 2 m/s 637 mmHg 61%
    19:00 +5°C° 0 mm 2 m/s 637 mmHg 57%
    20:00 +5°C° 0 mm 2 m/s 637 mmHg 53%
    21:00 +5°C° 0 mm 2 m/s 637 mmHg 49%
    22:00 +4°C° 0 mm 2 m/s 637 mmHg 48%
    23:00 +4°C° 0 mm 2 m/s 637 mmHg 46%
    Voir plus